Gypsum, CO

1:32 PM MST on January 24, 2017 (GMT -0700)
Eagle County Regional

Weather History for KEGE - May, 2012

Change the Weather History Date:

Sunday, May 6, 2012

  Actual Average Record
Temperature  
Mean Temperature 52 °F -  
Max Temperature 71 °F 63 °F 82 °F (1963)
Min Temperature 33 °F 32 °F 16 °F (1950)
Degree Days  
Heating Degree Days 13    
Growing Degree Days 2 (Base 50)    
Moisture  
Dew Point 23 °F    
Average Humidity 39    
Maximum Humidity 60    
Minimum Humidity 13    
Precipitation  
Precipitation 0.00 in - - ()
Sea Level Pressure  
Sea Level Pressure 30.10 in    
Wind  
Wind Speed 4 mph (ESE)    
Max Wind Speed 21 mph    
Max Gust Speed 31 mph    
Visibility 10 miles    
Events      
Averages and records for this station are not official NWS values.
T = Trace of Precipitation, MM = Missing Value Source: NWS Daily Summary

Daily Weather History Graph

Daily Weather History Graph

Search for Another Location

Airport or City:

Trip Planner

Search our weather history database for the weather conditions in past years. The results will help you decide how hot, cold, wet, or windy it might be!

Date:

Astronomy

May. 06, 2012 Rise Set
Actual Time 6:01 AM MDT 8:07 PM MDT
Civil Twilight 5:32 AM MDT 8:36 PM MDT
Nautical Twilight 4:56 AM MDT 9:13 PM MDT
Astronomical Twilight 4:16 AM MDT 9:52 PM MDT
Moon 9:15 PM MDT (5/6) 6:14 AM MDT (5/6)
Length of Visible Light 15h 04m
Length of Day
14h 05m
Waxing Gibbous, 99% of the Moon is Illuminated
May 6
Waxing Gibbous
May 12
Last Quarter
May 20
New
May 28
First Quarter
Jun 4
Full

Hourly Weather History & Observations

Time (MDT) Temp. Windchill Dew Point Humidity Pressure Visibility Wind Dir Wind Speed Gust Speed Precip Events Conditions
12:15 AM 46.4 °F 45.2 °F 24.8 °F 43% 30.12 in 10.0 mi SSE 3.5 mph - N/A   Clear
12:35 AM 46.4 °F - 23.0 °F 40% 30.13 in 10.0 mi Calm Calm - N/A   Clear
12:55 AM 44.6 °F 40.7 °F 21.2 °F 39% 30.13 in 10.0 mi East 6.9 mph - N/A   Clear
1:15 AM 44.6 °F 43.1 °F 21.2 °F 39% 30.14 in 10.0 mi East 3.5 mph - N/A   Clear
1:35 AM 44.6 °F - 21.2 °F 39% 30.14 in 10.0 mi Calm Calm - N/A   Clear
1:55 AM 42.8 °F - 21.2 °F 42% 30.13 in 10.0 mi Calm Calm - N/A   Clear
2:15 AM 42.8 °F - 21.2 °F 42% 30.14 in 10.0 mi Calm Calm - N/A   Clear
2:35 AM 41.0 °F 39.0 °F 21.2 °F 45% 30.14 in 10.0 mi South 3.5 mph - N/A   Clear
2:55 AM 39.2 °F - 21.2 °F 49% 30.14 in 10.0 mi Calm Calm - N/A   Clear
3:15 AM 39.2 °F - 21.2 °F 49% 30.14 in 10.0 mi Calm Calm - N/A   Clear
3:35 AM 37.4 °F 33.8 °F 19.4 °F 48% 30.14 in 10.0 mi East 4.6 mph - N/A   Clear
3:55 AM 37.4 °F 34.9 °F 21.2 °F 52% 30.15 in 10.0 mi East 3.5 mph - N/A   Clear
4:15 AM 37.4 °F - 21.2 °F 52% 30.15 in 10.0 mi Calm Calm - N/A   Clear
4:35 AM 37.4 °F 34.9 °F 21.2 °F 52% 30.15 in 10.0 mi SE 3.5 mph - N/A   Clear
4:55 AM 35.6 °F - 19.4 °F 52% 30.15 in 10.0 mi Calm Calm - N/A   Clear
5:15 AM 35.6 °F - 19.4 °F 52% 30.15 in 10.0 mi Calm Calm - N/A   Clear
5:35 AM 33.8 °F 30.8 °F 19.4 °F 56% 30.15 in 10.0 mi East 3.5 mph - N/A   Clear
5:55 AM 33.8 °F - 19.4 °F 56% 30.16 in 10.0 mi Calm Calm - N/A   Scattered Clouds
6:15 AM 33.8 °F - 21.2 °F 60% 30.17 in 10.0 mi Calm Calm - N/A   Scattered Clouds
6:35 AM 33.8 °F - 19.4 °F 56% 30.17 in 10.0 mi Calm Calm - N/A   Partly Cloudy
6:50 AM 33.8 °F - 21.2 °F 60% 30.17 in 10.0 mi Calm Calm - N/A   Partly Cloudy
7:50 AM 37.4 °F - 19.4 °F 48% 30.18 in 10.0 mi Calm Calm - N/A   Partly Cloudy
8:50 AM 44.6 °F - 19.4 °F 37% 30.16 in 10.0 mi Calm Calm - N/A   Partly Cloudy
9:50 AM 50.0 °F - 15.8 °F 26% 30.13 in 10.0 mi Calm Calm - N/A   Partly Cloudy
10:50 AM 55.4 °F - 15.8 °F 21% 30.11 in 10.0 mi SW 4.6 mph - N/A   Partly Cloudy
11:50 AM 59.0 °F - 17.6 °F 20% 30.06 in 10.0 mi SW 8.1 mph - N/A   Partly Cloudy
12:50 PM 64.4 °F - 15.8 °F 15% 30.02 in 10.0 mi SW 4.6 mph - N/A   Partly Cloudy
1:50 PM 68.0 °F - 19.4 °F 16% 29.98 in 10.0 mi West 11.5 mph 18.4 mph N/A   Partly Cloudy
2:50 PM 71.6 °F - 17.6 °F 13% 29.96 in 10.0 mi West 17.3 mph 27.6 mph N/A   Partly Cloudy
3:50 PM 69.8 °F - 17.6 °F 14% 29.98 in 10.0 mi WSW 20.7 mph 31.1 mph N/A   Scattered Clouds
4:50 PM 68.0 °F - 17.6 °F 15% 29.99 in 10.0 mi SW 16.1 mph 23.0 mph N/A   Mostly Cloudy
5:50 PM 66.2 °F - 17.6 °F 15% 30.02 in 10.0 mi South 9.2 mph - N/A   Mostly Cloudy
6:50 PM 60.8 °F - 21.2 °F 22% 30.05 in 10.0 mi ENE 10.4 mph 20.7 mph N/A   Mostly Cloudy
7:15 PM 59.0 °F - 28.4 °F 31% 30.06 in 10.0 mi East 16.1 mph 21.9 mph N/A   Overcast
7:35 PM 57.2 °F - 30.2 °F 36% 30.07 in 10.0 mi East 10.4 mph - N/A   Mostly Cloudy
7:55 PM 57.2 °F - 28.4 °F 33% 30.07 in 10.0 mi East 11.5 mph 18.4 mph N/A   Partly Cloudy
8:15 PM 57.2 °F - 28.4 °F 33% 30.08 in 10.0 mi ESE 10.4 mph - N/A   Clear
8:35 PM 55.4 °F - 28.4 °F 36% 30.08 in 10.0 mi East 8.1 mph - N/A   Clear
8:55 PM 55.4 °F - 28.4 °F 36% 30.09 in 10.0 mi ESE 6.9 mph - N/A   Clear
9:15 PM 55.4 °F - 28.4 °F 36% 30.09 in 10.0 mi ESE 10.4 mph - N/A   Clear
9:35 PM 55.4 °F - 28.4 °F 36% 30.09 in 10.0 mi East 10.4 mph - N/A   Clear
9:55 PM 53.6 °F - 28.4 °F 38% 30.10 in 10.0 mi East 4.6 mph - N/A   Clear
10:15 PM 53.6 °F - 28.4 °F 38% 30.10 in 10.0 mi East 3.5 mph - N/A   Clear
10:35 PM 51.8 °F - 30.2 °F 44% 30.10 in 10.0 mi NNE 3.5 mph - N/A   Clear
10:55 PM 51.8 °F - 30.2 °F 44% 30.10 in 10.0 mi NE 3.5 mph - N/A   Clear
11:15 PM 51.8 °F - 30.2 °F 44% 30.10 in 10.0 mi NE 3.5 mph - N/A   Clear
11:35 PM 51.8 °F - 30.2 °F 44% 30.09 in 10.0 mi NNE 3.5 mph - N/A   Clear